Location: Unspecified
(0.0000°N, 0.0000°E)
Time: 19:58:47
(UTC+00:00)

Transit 2A Rocket - All Passes

Search period start: 20 January 2017 00:00
Search period end: 30 January 2017 00:00
Orbit: 593 x 911 km, 66.7° (Epoch: 20 January)

Date Brightness Start Highest point End Pass type
(mag) Time Alt. Az. Time Alt. Az. Time Alt. Az.
20 Jan - 06:39:07 10° SE 06:40:35 11° ESE 06:42:01 10° E daylight
20 Jan - 08:17:19 10° SSW 08:23:10 57° WNW 08:28:38 10° N daylight
20 Jan - 19:06:35 10° NNE 19:09:52 20° ENE 19:13:19 10° ESE visible
20 Jan - 20:49:11 10° WNW 20:52:10 17° WSW 20:55:18 10° SSW visible
21 Jan - 07:34:54 10° SSW 07:40:52 72° ESE 07:46:26 10° NNE daylight
21 Jan - 20:05:39 10° NW 20:09:47 39° WSW 20:14:14 10° S visible
22 Jan - 06:53:06 10° S 06:58:31 36° ESE 07:03:38 10° NE daylight
22 Jan - 08:37:03 10° WSW 08:40:49 18° WNW 08:44:28 10° NNW daylight
22 Jan - 19:23:04 10° NNW 19:27:28 87° ENE 19:32:15 10° SSE visible
23 Jan - 06:12:10 10° SSE 06:16:07 18° ESE 06:19:55 10° ENE daylight
23 Jan - 07:53:14 10° SW 07:58:35 35° WNW 08:03:36 10° N daylight
23 Jan - 18:41:10 10° N 18:45:13 36° ENE 18:49:33 10° SE visible
24 Jan - 07:10:22 10° SSW 07:16:19 72° WNW 07:21:50 10° NNE daylight
24 Jan - 18:00:17 10° NNE 18:03:00 16° ENE 18:05:48 10° ESE daylight
24 Jan - 19:41:42 10° WNW 19:45:14 23° WSW 19:48:59 10° SSW visible
25 Jan - 06:28:09 10° S 06:34:01 57° ESE 06:39:28 10° NNE daylight
25 Jan - 08:15:47 10° WNW 08:16:14 10° WNW 08:16:42 10° WNW daylight
25 Jan - 18:58:33 10° NW 19:02:52 52° WSW 19:07:33 10° S visible
26 Jan - 05:46:35 10° S 05:51:38 29° ESE 05:56:24 10° NE visible
26 Jan - 07:29:34 10° WSW 07:33:58 22° WNW 07:38:10 10° NNW daylight
26 Jan - 18:16:11 10° NNW 18:20:35 66° ENE 18:25:21 10° SSE daylight
27 Jan - 05:06:10 10° SE 05:09:12 14° ESE 05:12:10 10° E visible
27 Jan - 06:46:08 10° SW 06:51:44 44° WNW 06:56:56 10° N daylight
27 Jan - 17:34:33 10° NNE 17:38:21 28° ENE 17:42:22 10° SE daylight
27 Jan - 19:18:31 10° W 19:20:43 13° WSW 19:22:59 10° SW visible
28 Jan - 06:03:30 10° SSW 06:09:27 89° WNW 06:14:58 10° NNE daylight
28 Jan - 16:54:21 10° NE 16:56:07 12° ENE 16:57:55 10° E daylight
28 Jan - 18:34:23 10° NW 18:38:18 29° WSW 18:42:31 10° S visible
29 Jan - 05:21:27 10° S 05:27:07 45° ESE 05:32:24 10° NE visible
29 Jan - 07:06:46 10° W 07:09:23 13° WNW 07:11:54 10° NW daylight
29 Jan - 17:51:31 10° NNW 17:55:57 69° WSW 18:00:47 10° SSE daylight
